Location: Bagnolo San Vito
(45.0833°N, 10.8833°E)
Time: 22:44:15
(UTC+00:00)

CZ-2C R/B - Pass Details

Date: 03 March 2021
Orbit: 783 x 871 km, 98.2° (Epoch: 17 April)

Event Time Altitude Azimuth Distance (km) Brightness Sun altitude
Rises 18:00:49 0° 17° (NNE) 3,430 5.7 -10.4°
Reaches altitude 10° 18:03:18 10° 23° (NNE) 2,477 4.9 -10.8°
Maximum altitude 18:08:38 51° 99° (E) 1,037 2.8 -11.7°
Drops below altitude 10° 18:13:49 10° 175° (S) 2,403 5.0 -12.6°
Sets 18:16:12 0° 180° (S) 3,318 5.8 -13.1°
